Montoursville, PA

2:41 PM EST on February 21, 2017 (GMT -0500)
Williamsport Rgnl

Weather History for KIPT - June, 2012

Change the Weather History Date:

Saturday, June 2, 2012

  Actual Average Record
Temperature  
Mean Temperature 61 °F 65 °F  
Max Temperature 70 °F 76 °F 95 °F (1923)
Min Temperature 52 °F 54 °F 38 °F (1897)
Degree Days  
Heating Degree Days 4 3  
Month to date heating degree days 5 6  
Since 1 June heating degree days 5 6  
Since 1 July heating degree days 4768 5964  
Cooling Degree Days 0 3  
Month to date cooling degree days 0 6  
Year to date cooling degree days 108 49  
Since 1 June cooling degree days 0 6  
Growing Degree Days 11 (Base 50)    
Moisture  
Dew Point 50 °F    
Average Humidity 69    
Maximum Humidity 97    
Minimum Humidity 40    
Precipitation  
Precipitation T in 0.13 in 1.68 in (1907)
Month to date precipitation 1.37 0.25  
Year to date precipitation 13.21 15.16  
Sea Level Pressure  
Sea Level Pressure 29.74 in    
Wind  
Wind Speed 6 mph (West)    
Max Wind Speed 16 mph    
Max Gust Speed 21 mph    
Visibility 10 miles    
Events Rain    
T = Trace of Precipitation, MM = Missing Value Source: NWS Daily Summary

Daily Weather History Graph

Daily Weather History Graph

Search for Another Location

Airport or City:

Trip Planner

Search our weather history database for the weather conditions in past years. The results will help you decide how hot, cold, wet, or windy it might be!

Date:

Astronomy

Jun. 02, 2012 Rise Set
Actual Time 5:36 AM EDT 8:35 PM EDT
Civil Twilight 5:03 AM EDT 9:08 PM EDT
Nautical Twilight 4:21 AM EDT 9:50 PM EDT
Astronomical Twilight 3:32 AM EDT 10:40 PM EDT
Moon 6:47 PM EDT (6/2) 3:54 AM EDT (6/2)
Length of Visible Light 16h 05m
Length of Day
14h 58m
Waxing Gibbous, 95% of the Moon is Illuminated
Jun 2
Waxing Gibbous
Jun 4
Full
Jun 11
Last Quarter
Jun 19
New
Jun 26
First Quarter

Hourly Weather History & Observations

Time (EDT) Temp. Dew Point Humidity Pressure Visibility Wind Dir Wind Speed Gust Speed Precip Events Conditions
12:54 AM 61.0 °F 59.0 °F 93% 29.68 in 10.0 mi North 3.5 mph - 0.00 in   Overcast
1:54 AM 61.0 °F 59.0 °F 93% 29.68 in 10.0 mi Calm Calm - N/A   Overcast
2:05 AM 60.8 °F 59.0 °F 94% 29.68 in 10.0 mi Calm Calm - N/A   Overcast
2:12 AM 60.8 °F 57.2 °F 88% 29.68 in 10.0 mi Calm Calm - N/A   Overcast
2:54 AM 60.1 °F 57.0 °F 90% 29.68 in 10.0 mi West 5.8 mph - N/A   Overcast
3:54 AM 57.0 °F 53.1 °F 87% 29.69 in 9.0 mi WNW 6.9 mph - N/A   Scattered Clouds
4:54 AM 54.0 °F 51.1 °F 90% 29.70 in 8.0 mi Calm Calm - N/A   Clear
5:54 AM 53.1 °F 51.1 °F 93% 29.71 in 5.0 mi Calm Calm - N/A   Clear
6:54 AM 55.9 °F 52.0 °F 87% 29.74 in 7.0 mi Calm Calm - N/A   Clear
7:54 AM 57.9 °F 50.0 °F 75% 29.75 in 10.0 mi West 5.8 mph - N/A   Clear
8:54 AM 61.0 °F 48.9 °F 64% 29.76 in 10.0 mi West 11.5 mph - N/A   Scattered Clouds
9:54 AM 59.0 °F 44.1 °F 58% 29.78 in 10.0 mi WSW 16.1 mph 23.0 mph N/A   Overcast
10:54 AM 57.9 °F 45.0 °F 62% 29.79 in 10.0 mi West 12.7 mph - N/A   Overcast
12:54 PM 62.1 °F 44.1 °F 52% 29.78 in 10.0 mi West 5.8 mph - N/A   Unknown
1:54 PM 68.0 °F 45.0 °F 43% 29.76 in 10.0 mi WNW 11.5 mph 17.3 mph N/A   Overcast
2:54 PM 68.0 °F 44.1 °F 42% 29.75 in 10.0 mi West 12.7 mph 20.7 mph N/A   Mostly Cloudy
3:54 PM 69.1 °F 45.0 °F 42% 29.75 in 10.0 mi West 4.6 mph - N/A   Overcast
4:54 PM 69.1 °F 45.0 °F 42% 29.75 in 10.0 mi Variable 6.9 mph - N/A   Mostly Cloudy
5:54 PM 69.1 °F 45.0 °F 42% 29.74 in 10.0 mi WSW 8.1 mph - N/A   Clear
6:54 PM 68.0 °F 46.9 °F 47% 29.74 in 10.0 mi South 3.5 mph - N/A   Partly Cloudy
7:54 PM 61.0 °F 51.1 °F 70% 29.77 in 10.0 mi NNW 11.5 mph 20.7 mph 0.00 in Rain Light Rain
8:54 PM 59.0 °F 52.0 °F 78% 29.77 in 10.0 mi Variable 3.5 mph - 0.00 in   Partly Cloudy
9:54 PM 59.0 °F 48.9 °F 69% 29.79 in 10.0 mi West 4.6 mph - N/A   Overcast
10:54 PM 57.9 °F 50.0 °F 75% 29.80 in 10.0 mi North 3.5 mph - N/A   Mostly Cloudy
11:54 PM 55.9 °F 51.1 °F 84% 29.81 in 10.0 mi Calm Calm - N/A   Mostly Cloudy